This is the latest recevied weather packets stored in our database for station/object VE3VGJ. If no packets are shown the sender has not sent any weather packets the latest 10 day(s).
| Time | Temp. | Humidity | Pressure | Rain* | Wind** | Luminosity | Snow |
|---|---|---|---|---|---|---|---|
| 1777334650 | 16.67° C | 40% | 1017.7 hPa | 0 mm | - | 7 W/m² | - |
| 1777334347 | 16.67° C | 40% | 1017.9 hPa | 0 mm | - | 10 W/m² | - |
| 1777334042 | 16.67° C | 39% | 1017.6 hPa | 0 mm | - | 14 W/m² | - |
| 1777333738 | 16.67° C | 39% | 1018 hPa | 0 mm | - | 18 W/m² | - |
| 1777333435 | 16.67° C | 39% | 1017.8 hPa | 0 mm | - | 22 W/m² | - |
| 1777333133 | 17.22° C | 38% | 1017.9 hPa | 0 mm | - | 27 W/m² | - |
| 1777332830 | 17.22° C | 38% | 1018 hPa | 0 mm | - | 34 W/m² | - |
| 1777332527 | 17.22° C | 38% | 1018.3 hPa | 0 mm | - | 40 W/m² | - |
| 1777332224 | 17.22° C | 37% | 1018.3 hPa | 0 mm | - | 44 W/m² | - |
| 1777331921 | 17.22° C | 37% | 1018.6 hPa | 0 mm | - | 47 W/m² | - |
| 1777331618 | 17.78° C | 36% | 1018.5 hPa | 0 mm | - | 54 W/m² | - |
| 1777331315 | 17.78° C | 36% | 1018.7 hPa | 0 mm | - | 59 W/m² | - |
| 1777331013 | 17.78° C | 35% | 1018.8 hPa | 0 mm | - | 58 W/m² | - |
| 1777330709 | 17.78° C | 35% | 1019 hPa | 0 mm | - | 71 W/m² | - |
| 1777330407 | 17.78° C | 34% | 1019 hPa | 0 mm | - | 79 W/m² | - |
| 1777330104 | 18.33° C | 35% | 1019.1 hPa | 0 mm | - | 96 W/m² | - |
| 1777329803 | 17.78° C | 36% | 1019 hPa | 0 mm | - | 107 W/m² | - |
| 1777329501 | 18.33° C | 35% | 1019.5 hPa | 0 mm | - | 121 W/m² | - |
| 1777329198 | 18.33° C | 34% | 1019.4 hPa | 0 mm | - | 120 W/m² | - |
| 1777328896 | 18.33° C | 35% | 1019.4 hPa | 0 mm | - | 140 W/m² | - |
| 1777328594 | 18.89° C | 34% | 1019.5 hPa | 0 mm | - | 117 W/m² | - |
| 1777328291 | 18.89° C | 34% | 1019.7 hPa | 0 mm | - | 162 W/m² | - |
| 1777327990 | 18.89° C | 35% | 1019.6 hPa | 0 mm | - | 186 W/m² | - |
| 1777327688 | 18.89° C | 35% | 1019.9 hPa | 0 mm | - | 201 W/m² | - |
| 1777327384 | 18.89° C | 35% | 1019.8 hPa | 0 mm | - | 235 W/m² | - |
* Rain latest hour (hover to see other rain measurements)
** Current wind speed in m/s (hover to see current wind gust speed)